Weather Roundup
Issued by NWS

Home | Current Version | Previous Version | Graphics & Text | Print | Product List | Glossary Off
Versions: 1 2 3 4 5 6 7 8 9 10 11 12 13 14 15 16 17 18 19 20 21 22 23 24 25 26 27 28 29 30 31 32 33 34 35 36 37 38 39 40 41 42 43 44 45 46 47 48 49 50

708
NZUS93 KARX 100859
HRRWXR

CURRENT HOURLY OBSERVATIONS ACROSS
MUCH OF THE UPPER MISSISSIPPI VALLEY
NATIONAL WEATHER SERVICE LA CROSSE WI
300 AM CST WED FEB 10 2016


...SOUTHEAST MINNESOTA...


CITY           SKY/WX    TMP DP  RH WIND       PRES   REMARKS
ROCHESTER      CLOUDY    -1  -8  72 NW10      30.05F WCI -17
ROCHESTER/MAYO FAIR       4  -4  70 NW8       30.07F WCI  -9
WINONA         CLOUDY     5  -2  72 NW6       30.11F WCI  -6
AUSTIN         CLOUDY     1  -2  85 NW6       30.06F WCI -10
ALBERT LEA     CLOUDY     3  -2  78 N6        30.07F WCI  -8
DODGE CENTER   CLOUDY     0  -6  78 NW7       30.06F WCI -13
PRESTON        CLOUDY     0  -8  70 NW8       30.05F WCI -14
OWATONNA       CLOUDY     0  -6  78 CALM      30.09S
FARIBAULT        N/A      0  -6  78 CALM      30.11S
$$

...ELSEWHERE IN MINNESOTA...


CITY           SKY/WX    TMP DP  RH WIND       PRES   REMARKS
MINNEAPOLIS    CLOUDY     5  -5  63 N7        30.13S WCI  -7
INTNL FALLS    PTCLDY   -10 -16  74 N3        30.12F HAZE
DULUTH         FLURRIES  -7 -12  79 N6        30.03F WCI -20
RED WING       PTCLDY     0  -8  71 CALM      30.11S
REDWOOD FALLS  CLOUDY     9   0  67 NE6       30.13F WCI  -1
MANKATO        PTCLDY     3  -2  78 NW6       30.12R WCI  -8
WORTHINGTON    CLOUDY    14   3  62 N5        30.08S WCI   6
FAIRMONT       CLOUDY     9   1  72 N9        30.09F WCI  -5
$$

...SOUTHWEST WISCONSIN...


CITY           SKY/WX    TMP DP  RH WIND       PRES   REMARKS
LA CROSSE      PTCLDY     4  -7  60 NW10      30.09S WCI -11
PRAIRIE DU CHI PTCLDY     5  -5  63 W6        30.09S WCI  -6
BOSCOBEL       CLEAR     -2  -6  83 CALM      30.08F
LONE ROCK      NOT AVBL
PLATTEVILLE    CLEAR      4  -3  72 NW8       30.03S WCI  -9
FORT MC COY    PTCLDY     4  -4  69 W5        30.07R WCI  -6
VIROQUA        FAIR       2  -6  69 NW8       30.01S WCI -12
WIS DELLS      CLOUDY     8  -1  68 NW6       30.00R WCI  -2
$$

...ELSEWHERE IN WISCONSIN...


CITY           SKY/WX    TMP DP  RH WIND       PRES   REMARKS
MILWAUKEE      PTCLDY    11   0  61 NW10      29.94S WCI  -3
MADISON        CLOUDY    10   0  63 NW10      30.00R WCI  -4
GREEN BAY      CLEAR      9  -4  55 N16       29.95R WCI  -8
EAU CLAIRE     NOT AVBL
BLACK RVR FLS  CLOUDY     3  -7  63 NW5       30.07R WCI  -6
MEDFORD        CLOUDY     5  -2  72 NW10      29.94F WCI -10
WAUSAU         CLOUDY     9  -1  64 NW9       29.94F WCI  -4
WIS RAPIDS     CLOUDY     8  -3  61 NW10      29.99F WCI  -6
MARSHFIELD     PTCLDY     4  -6  63 NW12      29.96F WCI -12
RICE LAKE      CLOUDY     1  -5  74 NW6       30.08S WCI -10
$$

...NORTHEAST IOWA...


CITY           SKY/WX    TMP DP  RH WIND       PRES   REMARKS
WATERLOO       PTCLDY     3  -1  83 W6        30.10F WCI  -8
DUBUQUE        CLEAR      6  -3  66 NW13      30.04R WCI -10
DECORAH        CLOUDY     1  -6  71 NW5       30.06S WCI  -8
MASON CITY     CLOUDY     2  -2  83 NW8       30.10F WCI -12
CHARLES CITY   CLOUDY     3  -2  78 NW9       30.09F WCI -11
OELWEIN        CLOUDY     1  -6  71 NW10      30.09S WCI -14
$$

...ELSEWHERE IN IOWA...


CITY           SKY/WX    TMP DP  RH WIND       PRES   REMARKS
DES MOINES     CLOUDY    17   7  64 N8        30.15F WCI   7
IOWA CITY      CLEAR      9   1  70 NW9       30.14R WCI  -4
FORT DODGE     CLOUDY    10   5  79 CALM      30.13S
MARSHALLTOWN   CLOUDY     5   1  83 NW8       30.12S WCI  -8
CEDAR RAPIDS   CLEAR      6   1  80 NW10      30.09F WCI  -9
$$

...NORTHERN ILLINOIS...


CITY           SKY/WX    TMP DP  RH WIND       PRES   REMARKS
CHICAGO-OHARE  PTCLDY    12   2  64 NW14      29.95S WCI  -3
CHICAGO-MIDWAY PTCLDY    14   2  58 NW13      29.96S WCI   0
MOLINE         CLEAR      9   0  67 NW8       30.10R WCI  -3
ROCKFORD       CLOUDY     9   0  67 NW13      30.03R WCI  -7
PEORIA         CLEAR     11   1  64 NW7       30.07S WCI   0
$$

NOTE: "FAIR" INDICATES FEW OR NO CLOUDS BELOW 12,000 FEET WITH NO
SIGNIFICANT WEATHER AND/OR OBSTRUCTIONS TO VISIBILITY. WIND
SPEEDS ARE IN MILES-PER-HOUR.




USA.gov is the U.S. government's official web portal to all federal, state and local government web resources and services.